Content
SEND FEEDBACK

Daily
Averages
Monthly
Summary
Mauritania

NOUADHIBOU, MAURITANIA


Home > Africa > Mauritania
Elevation: 10 feet     Latitude: 20 56N     Longitude: 017 02W

WEATHER
 
SELECT A DAY
Number of Records: 118,056;   Date Range: 7/1/96 - 8/27/14
 
SHARE

PRINT THIS DATA

[ ← Previous Day ]
WEATHER ALMANAC - MAY 25, 2013
[ Next Day → ]
[ °C ]   °F
Weather ElementAverageHighLow
Temperature72.8 °F86 °F (12:00 pm)68 °F (4:00 am)
Dewpoint57.8 °F61 °F (3:00 am)50 °F (12:00 pm)
Humidity59.1 %73 % (4:00 am)19 % (12:00 pm)
Barometer29.96 in30.00 in (12:00 pm)29.92 in (4:00 am)
Wind Speed19.7 mph24.2 mph (6:00 pm)
Weather ElementAverage
Visibility4.7 mi
Wind DirectionWNW (293.9 °)

Weather ElementTotal
Precipitation---
Cooling Degree Days12 (Base 65)
Growing Degree Days27 (Base 50)
Averaged from 31 records on May 25, 2013
WEATHER CONDITIONS BREAKOUT
WIND DIRECTION BREAKOUT
WEATHER BY HOUR - MAY 25, 2013
[ °C ]   °F
Local TimeTemperatureDewpointHumidityBarometerVisibilityWind DirectionWind SpeedGust SpeedPrecipitationEventsConditions
12:00 AM69.8 °F59.0 °F68 %29.98 in4.3 miNNW (340°)18.4 mph
1:00 AM69.8 °F59.0 °F68 %29.98 in4.3 miNNW (340°)18.4 mph
2:00 AM69.8 °F59.0 °F68 %29.98 in5.0 miNorth (350°)19.6 mph
3:00 AM69.0 °F61.0 °F68 %29.96 in5.0 miNorth18.4 mphMostly Cloudy
3:00 AM69.8 °F59.0 °F68 %29.95 in5.0 miNNW (340°)18.4 mph
4:00 AM68.0 °F59.0 °F73 %29.92 in5.0 miNorth (350°)20.7 mph
5:00 AM68.0 °F59.0 °F73 %29.92 in5.0 miNorth (350°)19.6 mph
6:00 AM68.0 °F59.0 °F73 %29.95 in5.0 miNorth (350°)20.7 mph
6:00 AM68.0 °F60.0 °F67 %29.96 in5.0 miNorth18.4 mphMostly Cloudy
7:00 AM68.0 °F57.2 °F68 %29.95 in5.0 miNorth (350°)18.4 mph
8:00 AM69.8 °F55.4 °F60 %29.95 in5.0 miNNW (340°)20.7 mph
9:00 AM74.0 °F55.0 °F42 %29.99 in5.0 miNorth19.6 mphPartly Cloudy
9:00 AM73.4 °F53.6 °F50 %29.98 in5.0 miNorth (360°)23.0 mph
10:00 AM77.0 °F53.6 °F44 %29.98 in5.0 miNorth (360°)23.0 mph
11:00 AM80.6 °F51.8 °F37 %29.98 in5.0 miNorth (360°)21.9 mph
12:00 PM86.0 °F51.8 °F31 %29.98 in5.0 miNorth (360°)20.7 mph
12:00 PM86.0 °F50.0 °F19 %30.00 in5.0 miNorth19.6 mph
1:00 PM80.6 °F59.0 °F48 %29.98 in5.0 miNW (320°)11.5 mph
2:00 PM78.8 °F59.0 °F51 %29.95 in5.0 miNW (310°)18.4 mph
3:00 PM79.0 °F60.0 °F42 %29.95 in4.0 miNW (320°)19.6 mphBlowing Sand
3:00 PM78.8 °F59.0 °F51 %29.92 in3.7 miNW (310°)19.6 mphLow Drifting Sand
4:00 PM73.4 °F59.0 °F61 %29.92 in3.7 miNW (310°)23.0 mphLow Drifting Sand
5:00 PM73.4 °F59.0 °F61 %29.92 in3.7 miNW (310°)19.6 mphLow Drifting Sand
6:00 PM71.6 °F59.0 °F64 %29.92 in3.7 miNW (320°)23.0 mphLow Drifting Sand
6:00 PM72.0 °F60.0 °F58 %29.94 in4.0 miNW (320°)24.2 mphBlowing Sand
7:00 PM69.8 °F59.0 °F68 %29.95 in3.7 miNNW (330°)20.7 mphLow Drifting Sand
8:00 PM68.0 °F59.0 °F73 %29.95 in5.0 miNNW (330°)18.4 mphLow Drifting Sand
9:00 PM68.0 °F61.0 °F72 %29.99 in5.0 miNNW (340°)18.4 mph
9:00 PM68.0 °F59.0 °F73 %29.98 in5.0 miNNW (340°)17.3 mphLow Drifting Sand
10:00 PM71.6 °F59.0 °F64 %29.98 in5.0 miNNW (340°)18.4 mphLow Drifting Sand
11:00 PM69.8 °F59.0 °F68 %29.98 in5.0 miNorth (360°)18.4 mphLow Drifting Sand
Hourly data recorded from GQPP, located miles away from Nouadhibou, Mauritania







STORIES FROM OUR PARTNERS